FW4080 Weather Reports


time (UTC)temp
C
wind
direction
speed
KPH
gust
KPH
rain 1hr
cm
rain 24hr
cm
rain mn
cm
humidity
%
barometer
mb
20260506234555 12 281 0.0 4.8 0.00 0.05 0.03 55 1013.7
20260506233051 12 328 0.0 3.2 0.00 0.05 0.03 55 1013.4
20260506231553 12 276 0.0 4.8 0.00 0.05 0.03 56 1013.7
20260506230045 12 264 0.0 1.6 0.00 0.05 0.03 56 1013.9
20260506224545 12 76 0.0 3.2 0.00 0.05 0.03 56 1013.9
20260506223045 12 77 0.0 6.4 0.00 0.05 0.03 55 1014.0
20260506221545 13 254 0.0 4.8 0.00 0.05 0.03 54 1014.1
20260506220041 13 333 0.0 8.0 0.00 0.05 0.03 52 1013.5
20260506214542 13 352 1.6 6.4 0.00 0.36 0.03 51 1013.4
20260506213040 13 104 0.0 6.4 0.00 0.36 0.03 54 1013.2
20260506211538 13 218 0.0 4.8 0.00 0.36 0.03 55 1013.2
20260506210037 13 72 0.0 3.2 0.00 0.36 0.03 55 1013.1
20260506204540 13 47 0.0 3.2 0.00 0.36 0.03 55 1013.1
20260506203040 13 15 1.6 8.0 0.00 0.36 0.03 53 1013.0
20260506201539 13 228 0.0 4.8 0.00 0.36 0.03 54 1012.8
20260506200039 13 316 0.0 8.0 0.00 0.36 0.03 54 1012.9
20260506194534 13 354 1.6 8.0 0.00 0.36 0.03 55 1012.7
20260506193033 13 195 3.2 9.7 0.00 0.36 0.03 54 1012.8
20260506191532 15 56 1.6 4.8 0.00 0.36 0.03 53 1012.8
20260506190038 15 342 1.6 11.3 0.00 0.36 0.03 51 1012.7
20260506184538 15 132 0.0 9.7 0.00 0.36 0.03 54 1012.6
20260506183032 15 338 1.6 11.3 0.00 0.36 0.03 51 1012.7
20260506181530 15 23 0.0 9.7 0.00 0.36 0.03 50 1012.9
20260506180030 15 357 0.0 6.4 0.00 0.36 0.03 55 1012.8
20260506174529 15 202 0.0 6.4 0.00 0.36 0.03 54 1012.8
20260506173032 15 342 1.6 8.0 0.00 0.36 0.03 55 1012.9
20260506171528 15 29 1.6 6.4 0.00 0.36 0.03 58 1012.8
20260506170025 15 146 0.0 6.4 0.00 0.36 0.03 56 1012.9
20260506164525 15 334 0.0 4.8 0.00 0.36 0.03 59 1012.9
20260506163030 13 290 0.0 9.7 0.00 0.36 0.03 62 1013.2
20260506161519 14 333 0.0 6.4 0.00 0.36 0.03 59 1013.2
20260506160017 13 212 0.0 6.4 0.00 0.36 0.03 61 1012.8
20260506154513 13 357 0.0 3.2 0.00 0.36 0.03 65 1012.6
20260506153009 12 156 0.0 3.2 0.00 0.36 0.03 71 1012.6
20260506151504 11 36 0.0 6.4 0.00 0.36 0.03 75 1012.5
20260506144556 10 205 0.0 4.8 0.00 0.36 0.03 88 1012.2
20260506143053 9 13 0.0 6.4 0.00 0.36 0.03 97 1012.3
20260506141551 8 15 1.6 8.0 0.00 0.36 0.03 98 1011.9
20260506140049 7 23 1.6 6.4 0.00 0.36 0.03 98 1011.5
20260506134549 7 115 0.0 8.0 0.00 0.36 0.03 98 1011.7
20260506133046 7 300 0.0 4.8 0.00 0.36 0.03 98 1011.3
20260506131551 6 333 0.0 4.8 0.00 0.36 0.03 98 1011.1
20260506130059 7 328 0.0 4.8 0.00 0.36 0.03 98 1011.3
20260506124550 7 236 0.0 3.2 0.00 0.36 0.03 98 1011.2
20260506123041 7 349 0.0 4.8 0.00 0.36 0.03 98 1010.6
20260506121537 7 257 0.0 1.6 0.00 0.36 0.03 98 1010.2
20260506120036 7 278 0.0 1.6 0.00 0.36 0.03 98 1010.1
20260506114538 7 345 0.0 1.6 0.00 0.36 0.03 98 1010.1
20260506113040 7 224 0.0 4.8 0.00 0.36 0.03 98 1010.3
20260506111530 7 5 0.0 3.2 0.00 0.36 0.03 98 1009.2
20260506110030 7 113 0.0 4.8 0.00 0.36 0.03 98 1008.9
20260506104529 7 262 0.0 3.2 0.00 0.36 0.03 98 1008.9
20260506103033 7 283 0.0 6.4 0.00 0.36 0.03 98 1009.2
20260506101539 7 318 0.0 3.2 0.00 0.36 0.03 98 1008.9
20260506100020 7 319 0.0 1.6 0.00 0.36 0.03 98 1008.0
20260506094524 7 259 0.0 3.2 0.00 0.36 0.03 98 1008.2
20260506093022 7 337 0.0 4.8 0.03 0.36 0.03 98 1007.7
20260506091517 7 131 0.0 4.8 0.03 0.36 0.03 98 1008.3
20260506090015 7 222 0.0 3.2 0.03 0.36 0.03 98 1007.8
20260506084514 7 332 1.6 6.4 0.03 0.36 0.03 98 1008.1
20260506083014 7 278 0.0 4.8 0.00 0.33 0.00 98 1008.2
20260506081511 7 85 0.0 8.0 0.00 0.33 0.00 98 1007.9
20260506073013 7 160 0.0 8.0 0.00 0.33 0.00 98 1007.4
20260506071505 7 338 0.0 6.4 0.00 0.33 0.00 98 1007.6
20260506061556 8 290 0.0 3.2 0.00 0.33 0.00 98 1007.6
20260506044638 9 221 0.0 3.2 0.00 0.33 0.00 98 1007.9
20260506043046 9 117 0.0 1.6 0.00 0.33 0.00 98 1007.8
20260506041556 9 358 0.0 4.8 0.00 0.33 0.00 98 1007.9
20260506040041 9 110 0.0 1.6 0.03 0.33 0.00 98 1008.1
20260506034605 9 165 0.0 1.6 0.03 0.33 0.33 98 1008.2
20260506033039 10 322 0.0 6.4 0.03 0.33 0.33 98 1008.3
20260506031540 10 352 0.0 6.4 0.03 0.33 0.33 98 1008.6
20260506030031 11 257 1.6 9.7 0.00 0.30 0.30 97 1008.8
20260506024528 12 163 1.6 8.0 0.00 0.30 0.30 97 1008.1
20260506023025 14 23 0.0 0.0 0.00 0.30 0.30 99 1008.2
20260506021524 14 23 0.0 0.0 0.00 0.30 0.30 98 1008.2
20260506020022 14 23 0.0 0.0 0.00 0.30 0.30 98 1008.4
20260506014527 14 23 0.0 0.0 0.00 0.30 0.30 98 1008.3
20260506013021 14 23 0.0 1.6 0.00 0.30 0.30 98 1008.2
20260506011521 14 33 0.0 1.6 0.00 0.30 0.30 98 1007.9
20260506010019 15 311 0.0 3.2 0.00 0.30 0.30 98 1007.7
20260506004513 15 142 0.0 3.2 0.00 0.30 0.30 98 1007.8
20260506003008 15 215 0.0 3.2 0.00 0.30 0.30 98 1007.8
20260506001505 15 335 0.0 1.6 0.00 0.30 0.30 98 1007.8
20260506000004 15 335 0.0 4.8 0.00 0.30 0.30 98 1007.9